NSZ3406 EKCH-GMMX

Flight info

Callsign NSZ3406
Flight time N/A
Altitude 34000
Route NEXEN T503 MICOS DCT MAS DCT RASCA DCT FAMEN/N0439F330 DCT AHVEC/N0446F350 DCT RESMI DCT DEKOD DCT DISAK DCT ARKIP DCT ARNAV DCT LMG DCT UVELI DCT OSMOB DCT ARVID DCT PPN DCT NOLSA DCT ALEPO DCT VASUM DCT BANEV DCT BAN DCT PINAR DCT CJN L27 BLN DCT MGA DCT PIMOS DCT GALTO UN869 PELAX UB11 MABAP
Aircraft B738/M-SDE2E3FGHIRWXY/LB1

Departure

Time 2026-04-23 08:41
Airport Copenhagen Kastrup Airport (EKCH)

Arrival

Time N/A
Airport Marrakesh Menara Airport (GMMX)
Time Latitude Longitude Altitude Speed Heading
2026-04-23 08:10 55.62605 12.64893 16 ft 0 kts 91°
2026-04-23 08:30 55.62605 12.64868 16 ft 4 kts 95°
2026-04-23 08:30 55.62610 12.64822 16 ft 4 kts 111°
2026-04-23 08:30 55.62624 12.64786 19 ft 4 kts 154°
2026-04-23 08:31 55.62636 12.64780 19 ft 4 kts 190°
2026-04-23 08:31 55.62617 12.64774 18 ft 4 kts 191°
2026-04-23 08:31 55.62591 12.64770 17 ft 3 kts 179°
2026-04-23 08:31 55.62587 12.64771 16 ft 1 kts 179°
2026-04-23 08:34 55.62555 12.64771 16 ft 10 kts 179°
2026-04-23 08:35 55.62464 12.64776 16 ft 14 kts 177°
2026-04-23 08:35 55.62369 12.64783 16 ft 14 kts 178°
2026-04-23 08:35 55.62278 12.64788 18 ft 13 kts 178°
2026-04-23 08:35 55.62192 12.64753 18 ft 13 kts 212°
2026-04-23 08:36 55.62118 12.64669 18 ft 13 kts 213°
2026-04-23 08:36 55.62017 12.64553 17 ft 19 kts 213°
2026-04-23 08:36 55.61892 12.64510 18 ft 19 kts 169°
2026-04-23 08:36 55.61767 12.64550 18 ft 18 kts 169°
2026-04-23 08:37 55.61648 12.64535 16 ft 17 kts 208°
2026-04-23 08:37 55.61549 12.64422 16 ft 17 kts 213°
2026-04-23 08:37 55.61439 12.64296 17 ft 20 kts 213°
2026-04-23 08:37 55.61321 12.64161 18 ft 20 kts 213°
2026-04-23 08:38 55.61206 12.64029 18 ft 19 kts 213°
2026-04-23 08:38 55.61096 12.63901 17 ft 19 kts 213°
2026-04-23 08:38 55.60989 12.63777 18 ft 18 kts 214°
2026-04-23 08:38 55.60885 12.63658 16 ft 17 kts 212°
2026-04-23 08:39 55.60785 12.63544 16 ft 17 kts 213°
2026-04-23 08:39 55.60689 12.63432 16 ft 16 kts 213°
2026-04-23 08:39 55.60595 12.63302 17 ft 18 kts 221°
2026-04-23 08:39 55.60499 12.63157 16 ft 18 kts 220°
2026-04-23 08:40 55.60396 12.63161 16 ft 17 kts 130°
2026-04-23 08:40 55.60338 12.63324 18 ft 13 kts 82°
2026-04-23 08:40 55.60420 12.63474 16 ft 35 kts 41°
2026-04-23 08:40 55.60792 12.64049 19 ft 103 kts 41°
2026-04-23 08:41 55.61488 12.65114 18 ft 159 kts 39°
2026-04-23 08:41 55.62357 12.66376 628 ft 163 kts 37°
2026-04-23 08:41 55.63262 12.67751 1249 ft 179 kts 38°
2026-04-23 08:41 55.64167 12.69177 2100 ft 178 kts 38°
2026-04-23 08:42 55.65149 12.70727 2384 ft 203 kts 38°
2026-04-23 08:42 55.66271 12.72441 2659 ft 220 kts 36°
2026-04-23 08:42 55.67445 12.74206 3257 ft 223 kts 37°
2026-04-23 08:42 55.68678 12.76049 3642 ft 240 kts 37°
2026-04-23 08:43 55.69933 12.78091 4294 ft 250 kts 49°
2026-04-23 08:43 55.70649 12.80939 5139 ft 261 kts 76°
2026-04-23 08:43 55.70543 12.84251 5911 ft 276 kts 102°
2026-04-23 08:43 55.69610 12.87296 6634 ft 290 kts 128°
2026-04-23 08:44 55.67970 12.89438 7310 ft 301 kts 156°
2026-04-23 08:44 55.65916 12.90135 8028 ft 304 kts 185°
2026-04-23 08:44 55.63907 12.89153 8741 ft 301 kts 212°
2026-04-23 08:44 55.62192 12.87052 9516 ft 299 kts 222°
2026-04-23 08:45 55.60582 12.84697 10221 ft 302 kts 224°
2026-04-23 08:45 55.58970 12.82239 10654 ft 316 kts 224°
2026-04-23 08:45 55.57247 12.79597 10807 ft 338 kts 224°
2026-04-23 08:45 55.55409 12.76802 10988 ft 358 kts 224°
2026-04-23 08:46 55.53479 12.73903 11413 ft 369 kts 223°
2026-04-23 08:46 55.51503 12.70968 12022 ft 373 kts 223°
2026-04-23 08:46 55.49503 12.68018 12684 ft 376 kts 223°
2026-04-23 08:46 55.47480 12.65048 13304 ft 381 kts 223°
2026-04-23 08:47 55.45426 12.62041 13903 ft 386 kts 223°
2026-04-23 08:47 55.43349 12.59006 14457 ft 390 kts 223°
2026-04-23 08:47 55.41244 12.55937 14990 ft 395 kts 223°
2026-04-23 08:47 55.39116 12.52840 15535 ft 399 kts 223°
2026-04-23 08:48 55.36969 12.49719 16086 ft 403 kts 223°
2026-04-23 08:48 55.34825 12.46607 16618 ft 407 kts 222°
2026-04-23 08:48 55.32632 12.43428 17161 ft 411 kts 222°
2026-04-23 08:48 55.30416 12.40221 17693 ft 415 kts 222°
2026-04-23 08:49 55.28175 12.36982 18223 ft 419 kts 222°
2026-04-23 08:49 55.25916 12.33723 18724 ft 423 kts 222°
2026-04-23 08:49 55.23635 12.30437 19205 ft 425 kts 221°
2026-04-23 08:49 55.21348 12.27146 19722 ft 427 kts 221°
2026-04-23 08:50 55.19047 12.23842 20203 ft 429 kts 221°
2026-04-23 08:50 55.16729 12.20518 20695 ft 432 kts 221°
2026-04-23 08:50 55.14402 12.17186 21152 ft 434 kts 221°
2026-04-23 08:50 55.12055 12.13830 21619 ft 437 kts 221°
2026-04-23 08:51 55.09695 12.10460 22086 ft 439 kts 221°
2026-04-23 08:51 55.07321 12.07078 22547 ft 442 kts 220°
2026-04-23 08:51 55.04934 12.03680 22996 ft 444 kts 220°
2026-04-23 08:51 55.02536 12.00272 23435 ft 447 kts 220°
2026-04-23 08:52 55.00118 11.96842 23862 ft 449 kts 220°
2026-04-23 08:52 54.97688 11.93402 24216 ft 451 kts 220°
2026-04-23 08:52 54.95246 11.89949 24566 ft 454 kts 220°
2026-04-23 08:52 54.92791 11.86482 24915 ft 456 kts 220°
2026-04-23 08:53 54.90318 11.82997 25266 ft 458 kts 220°
2026-04-23 08:53 54.87836 11.79505 25597 ft 460 kts 220°
2026-04-23 08:53 54.85342 11.76000 25915 ft 463 kts 220°
2026-04-23 08:53 54.82830 11.72478 26234 ft 465 kts 220°
2026-04-23 08:54 54.80307 11.68944 26564 ft 467 kts 219°
2026-04-23 08:54 54.77771 11.65400 26882 ft 469 kts 219°
2026-04-23 08:54 54.75222 11.61843 27169 ft 472 kts 219°
2026-04-23 08:54 54.72663 11.58277 27476 ft 474 kts 219°
2026-04-23 08:55 54.70087 11.54694 27766 ft 476 kts 219°
2026-04-23 08:55 54.67504 11.51107 28056 ft 478 kts 219°
2026-04-23 08:55 54.64907 11.47506 28333 ft 480 kts 219°
2026-04-23 08:55 54.62298 11.43896 28601 ft 482 kts 219°
2026-04-23 08:56 54.59671 11.40266 28867 ft 484 kts 219°
2026-04-23 08:56 54.57037 11.36634 29164 ft 485 kts 219°
2026-04-23 08:56 54.54401 11.33004 29576 ft 484 kts 219°
2026-04-23 08:56 54.51779 11.29400 30006 ft 482 kts 218°
2026-04-23 08:57 54.49155 11.25799 30383 ft 481 kts 218°
2026-04-23 08:57 54.46539 11.22214 30662 ft 481 kts 218°
2026-04-23 08:57 54.43918 11.18630 30959 ft 481 kts 218°
2026-04-23 08:57 54.41301 11.15056 31276 ft 480 kts 218°
2026-04-23 08:58 54.38691 11.11497 31583 ft 479 kts 218°
2026-04-23 08:58 54.36087 11.07951 31872 ft 478 kts 218°
2026-04-23 08:58 54.33479 11.04407 32143 ft 478 kts 218°
2026-04-23 08:58 54.30875 11.00864 32453 ft 477 kts 219°
2026-04-23 08:59 54.28398 10.97097 32761 ft 476 kts 223°
2026-04-23 08:59 54.26026 10.93157 33044 ft 475 kts 224°
2026-04-23 08:59 54.23688 10.89159 33276 ft 476 kts 225°
2026-04-23 08:59 54.21348 10.85130 33465 ft 477 kts 224°
2026-04-23 09:00 54.19007 10.81117 33753 ft 476 kts 224°
2026-04-23 09:00 54.16699 10.77192 34083 ft 473 kts 224°
2026-04-23 09:00 54.14334 10.73204 34341 ft 473 kts 223°
2026-04-23 09:00 54.11978 10.69257 34303 ft 474 kts 223°
2026-04-23 09:01 54.07311 10.61487 34314 ft 470 kts 223°
2026-04-23 09:01 54.02643 10.53750 34312 ft 467 kts 223°
2026-04-23 09:02 53.97998 10.46075 34315 ft 464 kts 223°
2026-04-23 09:02 53.94127 10.39695 34320 ft 463 kts 223°
2026-04-23 09:03 53.89507 10.32102 34323 ft 462 kts 223°
2026-04-23 09:03 53.84886 10.24533 34335 ft 462 kts 222°
2026-04-23 09:04 53.80252 10.16967 34343 ft 464 kts 222°
2026-04-23 09:04 53.75600 10.09396 34347 ft 465 kts 222°
2026-04-23 09:05 53.70927 10.01815 34349 ft 466 kts 222°
2026-04-23 09:05 53.66235 9.94228 34345 ft 468 kts 222°
2026-04-23 09:06 53.61529 9.86643 34346 ft 468 kts 221°
2026-04-23 09:06 53.56813 9.79066 34347 ft 469 kts 221°
2026-04-23 09:07 53.52090 9.71504 34346 ft 469 kts 221°
2026-04-23 09:07 53.47366 9.63963 34349 ft 468 kts 221°
2026-04-23 09:08 53.42641 9.56445 34350 ft 468 kts 221°
2026-04-23 09:08 53.37920 9.48956 34356 ft 467 kts 221°
2026-04-23 09:09 53.33199 9.41494 34356 ft 466 kts 221°
2026-04-23 09:09 53.28487 9.34068 34365 ft 465 kts 220°
2026-04-23 09:10 53.21419 9.22975 34375 ft 464 kts 220°
2026-04-23 09:11 53.16710 9.15614 34378 ft 464 kts 220°
2026-04-23 09:11 53.12006 9.08283 34393 ft 463 kts 220°
2026-04-23 09:12 53.07301 9.00973 34399 ft 463 kts 220°
2026-04-23 09:12 53.02596 8.93687 34401 ft 462 kts 220°
2026-04-23 09:13 52.97886 8.86416 34403 ft 462 kts 220°
2026-04-23 09:13 52.93173 8.79162 34397 ft 462 kts 220°
2026-04-23 09:14 52.88454 8.71922 34398 ft 463 kts 219°
2026-04-23 09:14 52.83727 8.64693 34398 ft 463 kts 219°
2026-04-23 09:15 52.78996 8.57480 34410 ft 463 kts 219°
2026-04-23 09:15 52.74260 8.50280 34422 ft 463 kts 219°
2026-04-23 09:16 52.69522 8.43100 34428 ft 463 kts 219°
2026-04-23 09:16 52.64778 8.35934 34428 ft 462 kts 219°
2026-04-23 09:17 52.60033 8.28788 34428 ft 462 kts 219°
2026-04-23 09:17 52.55315 8.21703 34431 ft 462 kts 219°
2026-04-23 09:18 52.50563 8.14591 34430 ft 462 kts 218°
2026-04-23 09:18 52.45803 8.07488 34422 ft 462 kts 218°
2026-04-23 09:19 52.41050 8.00416 34424 ft 462 kts 218°
2026-04-23 09:19 52.36289 7.93354 34419 ft 461 kts 218°
2026-04-23 09:20 52.31531 7.86320 34428 ft 461 kts 218°
2026-04-23 09:20 52.26769 7.79299 34427 ft 461 kts 218°
2026-04-23 09:21 52.22008 7.72301 34433 ft 461 kts 218°
2026-04-23 09:21 52.17247 7.65325 34425 ft 460 kts 218°
2026-04-23 09:22 52.12484 7.58366 34430 ft 460 kts 218°
2026-04-23 09:22 52.07723 7.51431 34425 ft 459 kts 218°
2026-04-23 09:23 52.02965 7.44521 34433 ft 459 kts 217°
2026-04-23 09:23 51.98198 7.37619 34431 ft 459 kts 217°
2026-04-23 09:24 51.93439 7.30748 34430 ft 458 kts 217°
2026-04-23 09:24 51.88674 7.23888 34429 ft 458 kts 217°
2026-04-23 09:25 51.83916 7.17061 34426 ft 457 kts 217°
2026-04-23 09:25 51.79158 7.10252 34431 ft 456 kts 217°
2026-04-23 09:26 51.74406 7.03472 34427 ft 456 kts 217°
2026-04-23 09:26 51.69653 6.96711 34425 ft 455 kts 217°
2026-04-23 09:27 51.64902 6.89971 34426 ft 455 kts 217°
2026-04-23 09:27 51.60151 6.83252 34429 ft 454 kts 217°
2026-04-23 09:28 51.55396 6.76546 34426 ft 454 kts 217°
2026-04-23 09:28 51.50644 6.69864 34432 ft 454 kts 216°
2026-04-23 09:29 51.45858 6.63154 34429 ft 454 kts 216°
2026-04-23 09:29 51.41103 6.56505 34429 ft 454 kts 216°
2026-04-23 09:30 51.36378 6.49918 34449 ft 454 kts 216°
2026-04-23 09:30 51.31585 6.43256 34458 ft 453 kts 216°
2026-04-23 09:31 51.26825 6.36657 34459 ft 453 kts 216°
2026-04-23 09:31 51.22073 6.30091 34568 ft 457 kts 216°
2026-04-23 09:31 51.19636 6.26730 34847 ft 455 kts 216°
2026-04-23 09:32 51.17282 6.23484 35118 ft 453 kts 216°
2026-04-23 09:32 51.14901 6.20208 35350 ft 452 kts 216°
2026-04-23 09:32 51.12520 6.16938 35424 ft 453 kts 216°
2026-04-23 09:33 51.07725 6.10369 35435 ft 455 kts 216°
2026-04-23 09:33 51.02943 6.03829 35423 ft 453 kts 216°
2026-04-23 09:34 50.98179 5.97333 35437 ft 450 kts 216°
2026-04-23 09:34 50.93411 5.90909 35425 ft 449 kts 215°
2026-04-23 09:35 50.88636 5.84565 35428 ft 448 kts 214°
2026-04-23 09:35 50.83861 5.78236 35434 ft 447 kts 214°
2026-04-23 09:36 50.79088 5.71916 35431 ft 448 kts 214°
2026-04-23 09:36 50.74313 5.65606 35432 ft 448 kts 214°
2026-04-23 09:37 50.69520 5.59287 35431 ft 449 kts 214°
2026-04-23 09:37 50.64719 5.52975 35432 ft 450 kts 214°
2026-04-23 09:38 50.59908 5.46669 35433 ft 451 kts 214°
2026-04-23 09:38 50.55083 5.40360 35430 ft 451 kts 214°
2026-04-23 09:39 50.50252 5.34062 35426 ft 451 kts 214°
2026-04-23 09:39 50.45422 5.27782 35417 ft 451 kts 214°
2026-04-23 09:40 50.40591 5.21517 35421 ft 450 kts 214°
2026-04-23 09:40 50.35795 5.15316 35406 ft 450 kts 214°
2026-04-23 09:41 50.30975 5.09099 35408 ft 449 kts 214°
2026-04-23 09:41 50.26152 5.02895 35401 ft 448 kts 214°
2026-04-23 09:42 50.21333 4.96712 35408 ft 448 kts 214°
2026-04-23 09:42 50.16511 4.90542 35401 ft 448 kts 214°
2026-04-23 09:43 50.12040 4.83678 35407 ft 455 kts 225°
2026-04-23 09:43 50.08002 4.76067 35401 ft 456 kts 225°
2026-04-23 09:44 50.03943 4.68492 35393 ft 455 kts 224°
2026-04-23 09:44 49.99845 4.60981 35394 ft 455 kts 224°
2026-04-23 09:45 49.95691 4.53569 35388 ft 454 kts 222°
2026-04-23 09:45 49.91340 4.46470 35392 ft 453 kts 220°
2026-04-23 09:46 49.87695 4.40633 35391 ft 454 kts 221°
2026-04-23 09:46 49.83312 4.33580 35386 ft 454 kts 221°
2026-04-23 09:47 49.78940 4.26512 35388 ft 455 kts 221°
2026-04-23 09:47 49.74568 4.19445 35391 ft 455 kts 221°
2026-04-23 09:48 49.70187 4.12384 35374 ft 455 kts 221°
2026-04-23 09:48 49.65801 4.05334 35388 ft 455 kts 221°
2026-04-23 09:49 49.61411 3.98300 35384 ft 455 kts 222°
2026-04-23 09:49 49.57025 3.91290 35379 ft 454 kts 222°
2026-04-23 09:50 49.52633 3.84292 35384 ft 454 kts 222°
2026-04-23 09:50 49.48239 3.77309 35385 ft 454 kts 223°
2026-04-23 09:51 49.43843 3.70343 35375 ft 454 kts 223°
2026-04-23 09:51 49.39468 3.63428 35373 ft 454 kts 223°
2026-04-23 09:52 49.35057 3.56477 35372 ft 455 kts 223°
2026-04-23 09:52 49.30642 3.49537 35369 ft 455 kts 223°
2026-04-23 09:53 49.26225 3.42612 35370 ft 455 kts 224°
2026-04-23 09:53 49.21769 3.35645 35376 ft 455 kts 224°
2026-04-23 09:54 49.17338 3.28739 35367 ft 456 kts 224°
2026-04-23 09:54 49.12894 3.21828 35374 ft 456 kts 224°
2026-04-23 09:55 49.08472 3.14972 35364 ft 457 kts 224°
2026-04-23 09:55 49.04012 3.08073 35369 ft 457 kts 224°
2026-04-23 09:56 48.99505 3.01123 35364 ft 458 kts 224°
2026-04-23 09:56 48.95048 2.94267 35364 ft 459 kts 225°
2026-04-23 09:57 48.90544 2.87357 35366 ft 460 kts 225°
2026-04-23 09:57 48.86027 2.80443 35362 ft 461 kts 225°
2026-04-23 09:58 48.81589 2.73405 35337 ft 461 kts 233°
2026-04-23 09:58 48.77932 2.65443 35345 ft 460 kts 237°
2026-04-23 09:59 48.74364 2.57396 35340 ft 460 kts 237°
2026-04-23 09:59 48.70753 2.49397 35349 ft 460 kts 237°
2026-04-23 10:00 48.67116 2.41439 35338 ft 459 kts 237°
2026-04-23 10:00 48.63484 2.33516 35342 ft 457 kts 237°
2026-04-23 10:01 48.59870 2.25648 35337 ft 455 kts 237°
2026-04-23 10:01 48.57814 2.22019 35324 ft 457 kts 223°
2026-04-23 10:01 48.55216 2.19256 35348 ft 459 kts 209°
2026-04-23 10:01 48.52255 2.17470 35326 ft 460 kts 194°
2026-04-23 10:02 48.49119 2.16471 35338 ft 460 kts 192°
2026-04-23 10:02 48.42823 2.14626 35321 ft 462 kts 193°
2026-04-23 10:03 48.36513 2.12645 35312 ft 464 kts 193°
2026-04-23 10:03 48.30169 2.10680 35305 ft 468 kts 189°
2026-04-23 10:04 48.23641 2.10792 35305 ft 473 kts 171°
2026-04-23 10:04 48.17118 2.12382 35304 ft 476 kts 172°
2026-04-23 10:05 48.10522 2.12866 35298 ft 475 kts 188°
2026-04-23 10:05 48.03974 2.11533 35309 ft 476 kts 190°
2026-04-23 10:06 47.97413 2.10153 35316 ft 477 kts 190°
2026-04-23 10:06 47.90838 2.08857 35313 ft 476 kts 190°
2026-04-23 10:07 47.84261 2.07599 35311 ft 475 kts 190°
2026-04-23 10:07 47.77714 2.06350 35310 ft 474 kts 190°
2026-04-23 10:08 47.71172 2.05100 35293 ft 473 kts 190°
2026-04-23 10:08 47.64660 2.03830 35285 ft 470 kts 193°
2026-04-23 10:09 47.58488 2.01012 35286 ft 462 kts 206°
2026-04-23 10:09 47.55506 1.99227 35261 ft 462 kts 206°
2026-04-23 10:09 47.49550 1.95654 35265 ft 462 kts 206°
2026-04-23 10:10 47.43572 1.92154 35266 ft 462 kts 206°
2026-04-23 10:10 47.37576 1.88694 35262 ft 463 kts 206°
2026-04-23 10:11 47.31571 1.85240 35264 ft 464 kts 206°
2026-04-23 10:11 47.25557 1.81785 35267 ft 464 kts 206°
2026-04-23 10:12 47.19532 1.78335 35265 ft 465 kts 206°
2026-04-23 10:12 47.13477 1.74917 35256 ft 466 kts 206°
2026-04-23 10:13 47.01739 1.68342 35234 ft 467 kts 206°
2026-04-23 10:14 46.95676 1.64951 35238 ft 466 kts 206°
2026-04-23 10:14 46.92645 1.63259 35238 ft 466 kts 206°